Hourly Data Report for October 07, 2016

All times are specified in Local Standard Time (LST). Add 1 hour to adjust for Daylight Saving Time where and when it is observed.

CHARLOTTETOWN A
PRINCE EDWARD ISLAND

46°17'21.000" N
63°07'09.000" W
48.50 m
8300301
71706
YYG

Download Data

Hourly Data (October 2016)
Hourly Data Report for October 7, 2016
Temp Definition
°C
Dew Point Temp Definition
°C
Rel Hum Definition
%
Wind Dir Definition
10's deg

Wind Spd Definition
km/h
Visibility Definition
km
Stn Press Definition
kPa
Hmdx Definition


Wind Chill Definition


Weather Definition


TIME
00:00 Legend Double Dagger 12.0 10.4 90 25 10 24.1 101.55     LegendNANA
01:00 Legend Double Dagger 12.3 10.6 89 26 12 24.1 101.54     LegendNANA
02:00 Legend Double Dagger 12.0 10.4 90 27 8 24.1 101.51     Clear
03:00 Legend Double Dagger 14.0 10.3 78 29 13 24.1 101.53     LegendNANA
04:00 Legend Double Dagger 14.1 10.4 78 29 15 24.1 101.56     LegendNANA
05:00 Legend Double Dagger 13.0 10.0 82 30 10 24.1 101.55     Clear
06:00 Legend Double Dagger 12.6 10.2 85 30 9 24.1 101.58     LegendNANA
07:00 Legend Double Dagger 11.5 9.9 90 31 10 24.1 101.62     LegendNANA
08:00 Legend Double Dagger 14.4 11.8 84 32 15 24.1 101.66     Mainly Clear
09:00 Legend Double Dagger 16.4 12.2 76 33 13 24.1 101.71     LegendNANA
10:00 Legend Double Dagger 18.4 12.5 68 31 13 24.1 101.72     LegendNANA
11:00 Legend Double Dagger 20.2 11.8 58 32 14 24.1 101.70     Mostly Cloudy
12:00 Legend Double Dagger 21.3 13.6 61 33 12 24.1 101.67     LegendNANA
13:00 Legend Double Dagger 21.5 12.5 56 30 12 24.1 101.63     LegendNANA
14:00 Legend Double Dagger 21.7 12.4 55 28 10 24.1 101.63     Mostly Cloudy
15:00 Legend Double Dagger 22.2 12.9 55 26 10 24.1 101.63 25   LegendNANA
16:00 Legend Double Dagger 21.4 12.4 56 28 16 24.1 101.61     LegendNANA
17:00 Legend Double Dagger 19.8 12.4 62 27 7 24.1 101.61     Mostly Cloudy
18:00 Legend Double Dagger 17.3 11.6 69 26 9 24.1 101.61     LegendNANA
19:00 Legend Double Dagger 16.4 11.2 71 27 10 24.1 101.63     LegendNANA
20:00 Legend Double Dagger 16.1 11.5 74 25 15 24.1 101.63     Clear
21:00 Legend Double Dagger 15.5 10.9 74 25 13 24.1 101.63     LegendNANA
22:00 Legend Double Dagger 14.5 10.9 79 24 7 24.1 101.63     LegendNANA
23:00 Legend Double Dagger 14.0 11.4 84 25 13 24.1 101.64     Clear

Notes on Data Quality.

Legend

  • E = Estimated
  • M = Missing
  • NA = Not Available
  • ‡ = Partner data that is not subject to review by the National Climate Archives
Date modified: